Regional Weather Roundup
Issued by NWS Cleveland, OH

Home | Current Version | Previous Version | Graphics & Text | Print | Product List | Glossary On
Versions: 1 2 3 4 5 6 7 8 9 10 11 12 13 14 15 16 17 18 19 20 21 22 23 24 25 26 27 28 29 30 31 32 33 34 35 36 37 38 39 40 41 42 43 44 45 46 47 48 49 50
000
ASUS41 KCLE 230800
RWRCLE
OHIO REGIONAL WEATHER ROUNDUP
NATIONAL WEATHER SERVICE WILMINGTON, OH
300 AM EST TUE JAN 23 2018

NOTE: "FAIR" INDICATES FEW OR NO CLOUDS BELOW 12,000 FEET WITH NO
SIGNIFICANT WEATHER AND/OR OBSTRUCTIONS TO VISIBILITY.

OHZ001>008-015>018-024>027-034-035-043-044-230900-
   NORTHWEST OHIO

CITY           SKY/WX    TMP DP  RH WIND       PRES   REMARKS
DEFIANCE       FAIR      38  33  82 SW7       29.56S
FINDLAY        FAIR      40  33  76 SW9       29.57R
TOLEDO EXPRESS FAIR      41  38  89 SW10      29.54S
TOLEDO EXEC    FAIR      39  36  89 SW9       29.56R
LIMA           FAIR      38  36  92 S6        29.57F
$$

OHZ009>014-019>023-028>033-038-089-230900-
   NORTHEAST OHIO

CITY           SKY/WX    TMP DP  RH WIND       PRES   REMARKS
CLE-HOPKINS    FAIR      48  44  86 S9        29.59S
CLE-LAKEFRONT  MOCLDY    49  43  80 S10       29.56R
CUY CO. ARPT   NOT AVBL
LORAIN-ELYRIA  FAIR      45  39  79 S8        29.57S
ASHTABULA      CLOUDY    45  43  93 S6        29.59F
AKRON-CANTON   MOCLDY    47  42  83 S8        29.60R
WOOSTER        NOT AVBL
MANSFIELD      MOCLDY    45  43  93 SW8       29.57R
YOUNGSTOWN     LGT RAIN  47  46  97 SW6       29.59S
$$

OHZ042-051>053-060>062-070>072-077>081-230900-
  SOUTHWEST OHIO

CITY           SKY/WX    TMP DP  RH WIND       PRES   REMARKS
CINC-COVINGTON FAIR      44  32  62 SW9       29.63S
CINC-LUNKEN    FAIR      45  33  63 SW10      29.66R
HAMILTON       FAIR      44  32  62 SW6       29.64R
DAYTON         NOT AVBL
WRIGHT-PAT AFB CLOUDY    38  36  89 S5        29.62R
DAYTON GENERAL CLOUDY    45  34  65 W6        29.61R
WILMINGTON     FAIR      43  33  68 SW15      29.62S
$$

OHZ036-037-039>041-045>050-054>059-063>069-073>076-082>088-230900-
  CENTRAL AND SOUTHEAST OHIO

CITY           SKY/WX    TMP DP  RH WIND       PRES   REMARKS
COLUMBUS       MOCLDY    48  42  80 SW9       29.61S
OSU AIRPORT    MOCLDY    46  38  73 W12       29.61R
BOLTON FIELD   NOT AVBL
RICKENBACK AFB NOT AVBL
NEWARK         CLOUDY    49  42  77 SW8       29.61S
MARION         FAIR      42  37  82 W9        29.60R
LANCASTER      CLOUDY    48  35  60 SW14G21   29.63R
ZANESVILLE     MOCLDY    51  45  79 SW6G17    29.62F
NEW PHILLY     CLOUDY    49  45  86 SW3       29.61F
$$




USA.gov is the U.S. government's official web portal to all federal, state and local government web resources and services.